Simultaneous Nadir Overpasses (SNOs) Predictions

Prediction of SNOs between GOES-15 and NOAA-20 Satellite Orbit:

Table of predicted SNOs for the next 14.0 days since TLE Epoch: 6/15/2022
Index Date Time (GOES-15) GOES-15 Lat,Lon NOAA-20 Lat,Lon Distance(km) Time Diff (sec)
1 06/16/2022 09:55:58 -0.04,-128.37 -0.28,-127.37 114.03 80
2 06/17/2022 22:15:14 0.07,-128.39 -0.88,-132.68 489.54 80
3 06/18/2022 21:59:09 0.05,-128.40 0.11,-128.15 28.97 80
4 06/21/2022 09:59:30 -0.06,-128.44 0.04,-128.89 50.74 80
5 06/22/2022 09:43:25 -0.05,-128.45 -0.96,-124.35 467.40 80
6 06/23/2022 22:02:41 0.08,-128.46 -0.19,-129.66 136.64 80
7 06/24/2022 21:46:36 0.07,-128.47 0.81,-125.13 381.50 80
8 06/26/2022 10:05:43 -0.10,-128.50 0.34,-130.40 217.17 80
9 06/27/2022 09:49:38 -0.09,-128.50 -0.66,-125.86 300.29 80
10 06/28/2022 22:08:54 0.13,-128.50 -0.47,-131.18 305.48 80
11 06/29/2022 21:52:48 0.11,-128.50 0.53,-126.64 212.00 80
